Weather in Devyatiny

Russia / Vologda Oblast     60°55′05″N   36°46′55″E
temp.,
°C
wind,
m/s
gust,
m/s
humid.,
%
clouds,
%
prec.,
mm/h
press.,
hPa
HPBL,
m
24 january, mon
mon2400:00−9ssw3129196 0.0 1027395
03:00−9ssw4129283 0.0 1027421
06:00−8ssw31193100 0.1 1026401
09:00−5ssw41193100 0.1 1025455
12:00−4ssw4139498 0.0 1023535
15:00−2ssw51493100 0.1 1022647
18:00−2ssw51592100 0.1 1020791
21:00−2ssw51493100 0.1 1018855
25 january, tue
tue2500:00−2ssw51492100 0.2 1016644
03:00−3ssw51493100 0.4 1014667
06:00−3ssw51296100 0.7 1012609
09:00−4ssw41196100 2.7 1010537
12:00−3sw3997100 2.6 1009454
15:00−2sw2898100 4.6 1009416
18:00−2nnw4997100 1.8 1010485
21:00−5nw41095100 2.0 1013468
26 january, wed
wed2600:00−12nw2610097 0.1 1015107
03:00−18wnw24100100 0.1 101747
06:00−21wnw11100100 0.0 101713
09:00−22w11100100 0.1 101814
12:00−14wnw14957 0.0 1017100
15:00−12wsw119514 0.0 101615
18:00−19s1110069 0.0 10179
21:00−21sse2210079 0.0 101612
27 january, thu
thu2700:00−19sse2298100 0.0 101525
03:00−15sse2693100 0.0 101384
06:00−13sse31089100 0.0 1011205
09:00−11sse41289100 0.0 1010299
12:00−9sse51486100 0.0 1008473
15:00−8sse51484100 0.0 1007560
18:00−9sse51588100 0.0 1005619
21:00−9sse51392100 0.5 1004627
28 january, fri
fri2800:00−9sse51292100 0.3 1003548
03:00−10sse41193100 0.5 1003436
06:00−10se41094100 0.3 1002394
09:00−10se41094100 0.6 1002368
12:00−10se4994100 0.2 1003338
15:00−9se3894100 0.3 1003355
18:00−9ese3795100 0.4 1003346
21:00−9ese2696100 0.9 1004262